Time,TemperatureF,DewpointF,PressureIn,WindDirection,WindDirectionDegrees,WindSpeedMPH,WindSpeedGustMPH,Humidity,HourlyPrecipIn,Conditions,Clouds,dailyrainin,SolarRadiationWatts/m^2,SoftwareType,DateUTC
2013-03-04 00:02:00,41.0,17.0,30.15,NW,319,7.0,17.0,37,0.00,,,0.00,24.000000,,2013-03-04 00:02:00,
2013-03-04 00:11:00,41.0,17.0,30.15,NW,319,7.0,17.0,37,0.00,,,0.00,24.000000,,2013-03-04 00:11:00,
2013-03-04 00:32:00,36.0,17.0,30.18,NW,325,5.0,8.0,46,0.00,,,0.00,0.000000,,2013-03-04 00:32:00,
2013-03-04 00:42:00,36.0,17.0,30.18,NW,325,5.0,8.0,46,0.00,,,0.00,0.000000,,2013-03-04 00:42:00,
2013-03-04 00:52:00,36.0,17.0,30.18,NW,325,5.0,8.0,46,0.00,,,0.00,0.000000,,2013-03-04 00:52:00,
2013-03-04 01:01:00,36.0,17.0,30.18,NW,325,5.0,8.0,46,0.00,,,0.00,0.000000,,2013-03-04 01:01:00,
2013-03-04 01:12:00,36.0,17.0,30.18,NW,325,5.0,8.0,46,0.00,,,0.00,0.000000,,2013-03-04 01:12:00,
2013-03-04 01:32:00,36.0,17.0,30.20,NNW,337,6.0,13.0,45,0.00,,,0.00,0.000000,,2013-03-04 01:32:00,
2013-03-04 01:42:00,36.0,17.0,30.20,NNW,337,6.0,13.0,45,0.00,,,0.00,0.000000,,2013-03-04 01:42:00,
2013-03-04 01:52:00,36.0,17.0,30.20,NNW,337,6.0,13.0,45,0.00,,,0.00,0.000000,,2013-03-04 01:52:00,
2013-03-04 02:01:00,36.0,17.0,30.20,NNW,337,6.0,13.0,45,0.00,,,0.00,0.000000,,2013-03-04 02:01:00,
2013-03-04 02:11:00,36.0,17.0,30.20,NNW,337,6.0,13.0,45,0.00,,,0.00,0.000000,,2013-03-04 02:11:00,
2013-03-04 02:42:00,36.0,17.0,30.22,NNW,339,6.0,16.0,46,0.00,,,0.00,0.000000,,2013-03-04 02:42:00,
2013-03-04 02:53:00,36.0,17.0,30.22,NNW,339,6.0,16.0,46,0.00,,,0.00,0.000000,,2013-03-04 02:53:00,
2013-03-04 03:02:00,36.0,17.0,30.22,NNW,339,6.0,16.0,46,0.00,,,0.00,0.000000,,2013-03-04 03:02:00,
2013-03-04 03:11:00,36.0,17.0,30.22,NNW,339,6.0,16.0,46,0.00,,,0.00,0.000000,,2013-03-04 03:11:00,
2013-03-04 03:32:00,34.0,17.0,30.25,NNE,18,6.0,14.0,49,0.00,,,0.00,0.000000,,2013-03-04 03:32:00,
2013-03-04 03:42:00,34.0,17.0,30.25,NNE,18,6.0,14.0,49,0.00,,,0.00,0.000000,,2013-03-04 03:42:00,
2013-03-04 03:53:00,34.0,17.0,30.25,NNE,18,6.0,14.0,49,0.00,,,0.00,0.000000,,2013-03-04 03:53:00,
2013-03-04 04:02:00,34.0,17.0,30.25,NNE,18,6.0,14.0,49,0.00,,,0.00,0.000000,,2013-03-04 04:02:00,
2013-03-04 04:11:00,34.0,17.0,30.25,NNE,18,6.0,14.0,49,0.00,,,0.00,0.000000,,2013-03-04 04:11:00,
2013-03-04 04:32:00,30.0,16.0,30.25,North,357,4.0,10.0,56,0.00,,,0.00,0.000000,,2013-03-04 04:32:00,
2013-03-04 04:42:00,30.0,16.0,30.25,North,357,4.0,10.0,56,0.00,,,0.00,0.000000,,2013-03-04 04:42:00,
2013-03-04 04:52:00,30.0,16.0,30.25,North,357,4.0,10.0,56,0.00,,,0.00,0.000000,,2013-03-04 04:52:00,
2013-03-04 05:01:00,30.0,16.0,30.25,North,357,4.0,10.0,56,0.00,,,0.00,0.000000,,2013-03-04 05:01:00,
2013-03-04 05:11:00,30.0,16.0,30.25,North,357,4.0,10.0,56,0.00,,,0.00,0.000000,,2013-03-04 05:11:00,
2013-03-04 05:32:00,30.0,17.0,30.25,NNW,343,4.0,10.0,58,0.00,,,0.00,0.000000,,2013-03-04 05:32:00,
2013-03-04 05:43:00,30.0,17.0,30.25,NNW,343,4.0,10.0,58,0.00,,,0.00,0.000000,,2013-03-04 05:43:00,
2013-03-04 05:52:00,30.0,17.0,30.25,NNW,343,4.0,10.0,58,0.00,,,0.00,0.000000,,2013-03-04 05:52:00,
2013-03-04 06:02:00,30.0,17.0,30.25,NNW,343,4.0,10.0,58,0.00,,,0.00,0.000000,,2013-03-04 06:02:00,
2013-03-04 06:11:00,30.0,17.0,30.25,NNW,343,4.0,10.0,58,0.00,,,0.00,0.000000,,2013-03-04 06:11:00,
2013-03-04 06:32:00,30.0,16.0,30.26,NNW,333,6.0,14.0,55,0.00,,,0.00,0.000000,,2013-03-04 06:32:00,
2013-03-04 06:42:00,30.0,16.0,30.26,NNW,333,6.0,14.0,55,0.00,,,0.00,0.000000,,2013-03-04 06:42:00,
2013-03-04 06:52:00,30.0,16.0,30.26,NNW,333,6.0,14.0,55,0.00,,,0.00,0.000000,,2013-03-04 06:52:00,
2013-03-04 07:02:00,30.0,16.0,30.26,NNW,333,6.0,14.0,55,0.00,,,0.00,0.000000,,2013-03-04 07:02:00,
2013-03-04 07:11:00,30.0,16.0,30.26,NNW,333,6.0,14.0,55,0.00,,,0.00,0.000000,,2013-03-04 07:11:00,
2013-03-04 07:32:00,28.0,14.0,30.27,NNW,332,6.0,13.0,56,0.00,,,0.00,0.000000,,2013-03-04 07:32:00,
2013-03-04 07:42:00,28.0,14.0,30.27,NNW,332,6.0,13.0,56,0.00,,,0.00,0.000000,,2013-03-04 07:42:00,
2013-03-04 07:52:00,28.0,14.0,30.27,NNW,332,6.0,13.0,56,0.00,,,0.00,0.000000,,2013-03-04 07:52:00,
2013-03-04 08:02:00,28.0,14.0,30.27,NNW,332,6.0,13.0,56,0.00,,,0.00,0.000000,,2013-03-04 08:02:00,
2013-03-04 08:12:00,28.0,14.0,30.27,NNW,332,6.0,13.0,56,0.00,,,0.00,0.000000,,2013-03-04 08:12:00,
2013-03-04 08:42:00,28.0,15.0,30.29,NW,323,6.0,13.0,57,0.00,,,0.00,0.000000,,2013-03-04 08:42:00,
2013-03-04 08:52:00,28.0,15.0,30.29,NW,323,6.0,13.0,57,0.00,,,0.00,0.000000,,2013-03-04 08:52:00,
2013-03-04 09:02:00,28.0,15.0,30.29,NW,323,6.0,13.0,57,0.00,,,0.00,0.000000,,2013-03-04 09:02:00,
2013-03-04 09:11:00,28.0,15.0,30.29,NW,323,6.0,13.0,57,0.00,,,0.00,0.000000,,2013-03-04 09:11:00,
2013-03-04 09:32:00,28.0,14.0,30.30,NW,318,6.0,13.0,56,0.00,,,0.00,0.000000,,2013-03-04 09:32:00,
2013-03-04 09:42:00,28.0,14.0,30.30,NW,318,6.0,13.0,56,0.00,,,0.00,0.000000,,2013-03-04 09:42:00,
2013-03-04 09:52:00,28.0,14.0,30.30,NW,318,6.0,13.0,56,0.00,,,0.00,0.000000,,2013-03-04 09:52:00,
2013-03-04 10:01:00,28.0,14.0,30.30,NW,318,6.0,13.0,56,0.00,,,0.00,0.000000,,2013-03-04 10:01:00,
2013-03-04 10:12:00,28.0,14.0,30.30,NW,318,6.0,13.0,56,0.00,,,0.00,0.000000,,2013-03-04 10:12:00,
2013-03-04 10:32:00,27.0,13.0,30.32,NW,310,6.0,11.0,55,0.00,,,0.00,0.000000,,2013-03-04 10:32:00,
2013-03-04 10:42:00,27.0,13.0,30.32,NW,310,6.0,11.0,55,0.00,,,0.00,0.000000,,2013-03-04 10:42:00,
2013-03-04 10:52:00,27.0,13.0,30.32,NW,310,6.0,11.0,55,0.00,,,0.00,0.000000,,2013-03-04 10:52:00,
2013-03-04 11:02:00,27.0,13.0,30.32,NW,310,6.0,11.0,55,0.00,,,0.00,0.000000,,2013-03-04 11:02:00,
2013-03-04 11:11:00,27.0,13.0,30.32,NW,310,6.0,11.0,55,0.00,,,0.00,0.000000,,2013-03-04 11:11:00,
2013-03-04 11:32:00,27.0,13.0,30.35,NW,306,6.0,13.0,56,0.00,,,0.00,0.000000,,2013-03-04 11:32:00,
2013-03-04 11:42:00,27.0,13.0,30.35,NW,306,6.0,13.0,56,0.00,,,0.00,0.000000,,2013-03-04 11:42:00,
2013-03-04 11:52:00,27.0,13.0,30.35,NW,306,6.0,13.0,56,0.00,,,0.00,0.000000,,2013-03-04 11:52:00,
2013-03-04 12:02:00,27.0,13.0,30.35,NW,306,6.0,13.0,56,0.00,,,0.00,0.000000,,2013-03-04 12:02:00,
2013-03-04 12:11:00,27.0,13.0,30.35,NW,306,6.0,13.0,56,0.00,,,0.00,0.000000,,2013-03-04 12:11:00,
2013-03-04 12:32:00,27.0,14.0,30.37,WNW,295,6.0,11.0,57,0.00,,,0.00,7.000000,,2013-03-04 12:32:00,
2013-03-04 12:43:00,27.0,14.0,30.37,WNW,295,6.0,11.0,57,0.00,,,0.00,7.000000,,2013-03-04 12:43:00,
2013-03-04 12:53:00,27.0,14.0,30.37,WNW,295,6.0,11.0,57,0.00,,,0.00,7.000000,,2013-03-04 12:53:00,
2013-03-04 13:02:00,27.0,14.0,30.37,WNW,295,6.0,11.0,57,0.00,,,0.00,7.000000,,2013-03-04 13:02:00,
2013-03-04 13:11:00,27.0,14.0,30.37,WNW,295,6.0,11.0,57,0.00,,,0.00,7.000000,,2013-03-04 13:11:00,
2013-03-04 13:42:00,30.0,14.0,30.39,WNW,303,6.0,13.0,51,0.00,,,0.00,40.000000,,2013-03-04 13:42:00,
2013-03-04 13:52:00,30.0,14.0,30.39,WNW,303,6.0,13.0,51,0.00,,,0.00,40.000000,,2013-03-04 13:52:00,
2013-03-04 14:01:00,30.0,14.0,30.39,WNW,303,6.0,13.0,51,0.00,,,0.00,40.000000,,2013-03-04 14:01:00,
2013-03-04 14:12:00,30.0,14.0,30.39,WNW,303,6.0,13.0,51,0.00,,,0.00,40.000000,,2013-03-04 14:12:00,
2013-03-04 14:32:00,35.0,14.0,30.39,NW,322,7.0,18.0,42,0.00,,,0.00,128.000000,,2013-03-04 14:32:00,
2013-03-04 14:42:00,35.0,14.0,30.39,NW,322,7.0,18.0,42,0.00,,,0.00,128.000000,,2013-03-04 14:42:00,
2013-03-04 14:52:00,35.0,14.0,30.39,NW,322,7.0,18.0,42,0.00,,,0.00,128.000000,,2013-03-04 14:52:00,
2013-03-04 15:02:00,35.0,14.0,30.39,NW,322,7.0,18.0,42,0.00,,,0.00,128.000000,,2013-03-04 15:02:00,
2013-03-04 15:11:00,35.0,14.0,30.39,NW,322,7.0,18.0,42,0.00,,,0.00,128.000000,,2013-03-04 15:11:00,
2013-03-04 15:42:00,37.0,11.0,30.38,NW,324,12.0,22.0,33,0.00,,,0.00,73.000000,,2013-03-04 15:42:00,
2013-03-04 15:52:00,37.0,11.0,30.38,NW,324,12.0,22.0,33,0.00,,,0.00,73.000000,,2013-03-04 15:52:00,
2013-03-04 16:03:00,37.0,11.0,30.38,NW,324,12.0,22.0,33,0.00,,,0.00,73.000000,,2013-03-04 16:03:00,
2013-03-04 16:11:00,37.0,11.0,30.38,NW,324,12.0,22.0,33,0.00,,,0.00,73.000000,,2013-03-04 16:11:00,
2013-03-04 16:42:00,46.0,13.0,30.38,NW,320,11.0,22.0,26,0.00,,,0.00,136.000000,,2013-03-04 16:42:00,
2013-03-04 16:52:00,46.0,13.0,30.38,NW,320,11.0,22.0,26,0.00,,,0.00,136.000000,,2013-03-04 16:52:00,
2013-03-04 17:02:00,46.0,13.0,30.38,NW,320,11.0,22.0,26,0.00,,,0.00,136.000000,,2013-03-04 17:02:00,
2013-03-04 17:11:00,46.0,13.0,30.38,NW,320,11.0,22.0,26,0.00,,,0.00,136.000000,,2013-03-04 17:11:00,
2013-03-04 17:42:00,49.0,11.0,30.35,NW,317,7.0,22.0,21,0.00,,,0.00,988.000000,,2013-03-04 17:42:00,
2013-03-04 17:52:00,49.0,11.0,30.35,NW,317,7.0,22.0,21,0.00,,,0.00,988.000000,,2013-03-04 17:52:00,
2013-03-04 18:02:00,49.0,11.0,30.35,NW,317,7.0,22.0,21,0.00,,,0.00,988.000000,,2013-03-04 18:02:00,
2013-03-04 18:11:00,49.0,11.0,30.35,NW,317,7.0,22.0,21,0.00,,,0.00,988.000000,,2013-03-04 18:11:00,
2013-03-04 18:32:00,52.0,10.0,30.33,NW,326,9.0,21.0,18,0.00,,,0.00,1041.000000,,2013-03-04 18:32:00,
2013-03-04 18:42:00,52.0,10.0,30.33,NW,326,9.0,21.0,18,0.00,,,0.00,1041.000000,,2013-03-04 18:42:00,
2013-03-04 18:52:00,52.0,10.0,30.33,NW,326,9.0,21.0,18,0.00,,,0.00,1041.000000,,2013-03-04 18:52:00,
2013-03-04 19:02:00,52.0,10.0,30.33,NW,326,9.0,21.0,18,0.00,,,0.00,1041.000000,,2013-03-04 19:02:00,
2013-03-04 19:12:00,52.0,10.0,30.33,NW,326,9.0,21.0,18,0.00,,,0.00,1041.000000,,2013-03-04 19:12:00,
2013-03-04 19:32:00,55.0,11.0,30.31,NW,320,10.0,21.0,17,0.00,,,0.00,990.000000,,2013-03-04 19:32:00,
2013-03-04 19:42:00,55.0,11.0,30.31,NW,320,10.0,21.0,17,0.00,,,0.00,990.000000,,2013-03-04 19:42:00,
2013-03-04 19:52:00,55.0,11.0,30.31,NW,320,10.0,21.0,17,0.00,,,0.00,990.000000,,2013-03-04 19:52:00,
2013-03-04 20:02:00,55.0,11.0,30.31,NW,320,10.0,21.0,17,0.00,,,0.00,990.000000,,2013-03-04 20:02:00,
2013-03-04 20:12:00,55.0,11.0,30.31,NW,320,10.0,21.0,17,0.00,,,0.00,990.000000,,2013-03-04 20:12:00,
2013-03-04 20:33:00,55.0,12.0,30.29,NW,323,7.0,18.0,18,0.00,,,0.00,852.000000,,2013-03-04 20:33:00,
2013-03-04 20:42:00,55.0,12.0,30.29,NW,323,7.0,18.0,18,0.00,,,0.00,852.000000,,2013-03-04 20:42:00,
2013-03-04 20:53:00,55.0,12.0,30.29,NW,323,7.0,18.0,18,0.00,,,0.00,852.000000,,2013-03-04 20:53:00,
2013-03-04 21:02:00,55.0,12.0,30.29,NW,323,7.0,18.0,18,0.00,,,0.00,852.000000,,2013-03-04 21:02:00,
2013-03-04 21:12:00,55.0,12.0,30.29,NW,323,7.0,18.0,18,0.00,,,0.00,852.000000,,2013-03-04 21:12:00,
2013-03-04 21:32:00,52.0,11.0,30.30,WNW,298,6.0,16.0,19,0.00,,,0.00,427.000000,,2013-03-04 21:32:00,
2013-03-04 21:43:00,52.0,11.0,30.30,WNW,298,6.0,16.0,19,0.00,,,0.00,427.000000,,2013-03-04 21:43:00,
2013-03-04 21:53:00,52.0,11.0,30.30,WNW,298,6.0,16.0,19,0.00,,,0.00,427.000000,,2013-03-04 21:53:00,
2013-03-04 22:02:00,52.0,11.0,30.30,WNW,298,6.0,16.0,19,0.00,,,0.00,427.000000,,2013-03-04 22:02:00,
2013-03-04 22:12:00,52.0,11.0,30.30,WNW,298,6.0,16.0,19,0.00,,,0.00,427.000000,,2013-03-04 22:12:00,
2013-03-04 22:32:00,49.0,12.0,30.30,West,275,6.0,19.0,22,0.00,,,0.00,50.000000,,2013-03-04 22:32:00,
2013-03-04 22:43:00,49.0,12.0,30.30,West,275,6.0,19.0,22,0.00,,,0.00,50.000000,,2013-03-04 22:43:00,
2013-03-04 22:52:00,49.0,12.0,30.30,West,275,6.0,19.0,22,0.00,,,0.00,50.000000,,2013-03-04 22:52:00,
2013-03-04 23:02:00,49.0,12.0,30.30,West,275,6.0,19.0,22,0.00,,,0.00,50.000000,,2013-03-04 23:02:00,
2013-03-04 23:11:00,49.0,12.0,30.30,West,275,6.0,19.0,22,0.00,,,0.00,50.000000,,2013-03-04 23:11:00,
2013-03-04 23:32:00,45.0,13.0,30.32,West,278,4.0,10.0,27,0.00,,,0.00,24.000000,,2013-03-04 23:32:00,
2013-03-04 23:42:00,45.0,13.0,30.32,West,278,4.0,10.0,27,0.00,,,0.00,24.000000,,2013-03-04 23:42:00,
2013-03-04 23:52:00,45.0,13.0,30.32,West,278,4.0,10.0,27,0.00,,,0.00,24.000000,,2013-03-04 23:52:00,